TimeEDT,TemperatureF,Dew PointF,Humidity,Sea Level PressureIn,VisibilityMPH,Wind Direction,Wind SpeedMPH,Gust SpeedMPH,PrecipitationIn,Events,Conditions,WindDirDegrees,DateUTC
12:15 AM,62.6,39.2,42,29.87,10.0,West,4.6,-,N/A,,Clear,260,2013-03-17 04:15:00
12:35 AM,60.8,39.2,45,29.87,10.0,West,3.5,-,N/A,,Clear,270,2013-03-17 04:35:00
12:55 AM,60.8,39.2,45,29.87,10.0,West,3.5,-,N/A,,Clear,270,2013-03-17 04:55:00
1:15 AM,62.6,39.2,42,29.87,10.0,West,4.6,-,N/A,,Clear,270,2013-03-17 05:15:00
1:35 AM,57.2,39.2,51,29.88,10.0,Calm,Calm,-,N/A,,Clear,0,2013-03-17 05:35:00
1:55 AM,60.8,39.2,45,29.88,10.0,Calm,Calm,-,N/A,,Clear,0,2013-03-17 05:55:00
2:15 AM,53.6,41.0,62,29.88,10.0,West,3.5,-,N/A,,Clear,270,2013-03-17 06:15:00
2:35 AM,53.6,41.0,62,29.88,10.0,WSW,6.9,-,N/A,,Clear,240,2013-03-17 06:35:00
2:55 AM,60.8,39.2,45,29.88,10.0,West,8.1,-,N/A,,Clear,260,2013-03-17 06:55:00
3:15 AM,60.8,37.4,42,29.89,10.0,SW,8.1,-,N/A,,Clear,230,2013-03-17 07:15:00
3:35 AM,55.4,39.2,54,29.89,10.0,WSW,8.1,-,N/A,,Clear,240,2013-03-17 07:35:00
3:55 AM,59.0,39.2,48,29.88,10.0,West,5.8,-,N/A,,Clear,270,2013-03-17 07:55:00
4:15 AM,53.6,39.2,58,29.89,10.0,Calm,Calm,-,N/A,,Clear,0,2013-03-17 08:15:00
4:35 AM,57.2,39.2,51,29.88,10.0,Calm,Calm,-,N/A,,Clear,0,2013-03-17 08:35:00
4:55 AM,51.8,41.0,67,29.88,10.0,Calm,Calm,-,N/A,,Clear,0,2013-03-17 08:55:00
5:15 AM,50.0,39.2,66,29.89,10.0,Calm,Calm,-,N/A,,Clear,0,2013-03-17 09:15:00
5:35 AM,51.8,39.2,62,29.90,10.0,Calm,Calm,-,N/A,,Clear,0,2013-03-17 09:35:00
5:55 AM,50.0,39.2,66,29.90,10.0,Calm,Calm,-,N/A,,Clear,0,2013-03-17 09:55:00
6:15 AM,50.0,41.0,71,29.90,10.0,Calm,Calm,-,N/A,,Clear,0,2013-03-17 10:15:00
6:35 AM,46.4,39.2,76,29.90,10.0,Calm,Calm,-,N/A,,Clear,0,2013-03-17 10:35:00
6:55 AM,46.4,41.0,81,29.90,10.0,Calm,Calm,-,N/A,,Clear,0,2013-03-17 10:55:00
7:15 AM,46.4,39.2,76,29.91,10.0,Calm,Calm,-,N/A,,Clear,0,2013-03-17 11:15:00
7:35 AM,44.6,39.2,81,29.92,10.0,Calm,Calm,-,N/A,,Clear,0,2013-03-17 11:35:00
7:55 AM,46.4,41.0,81,29.92,10.0,Calm,Calm,-,N/A,,Clear,0,2013-03-17 11:55:00
8:15 AM,46.4,41.0,81,29.93,10.0,Calm,Calm,-,N/A,,Clear,0,2013-03-17 12:15:00
8:35 AM,50.0,42.8,76,29.94,10.0,Calm,Calm,-,N/A,,Clear,0,2013-03-17 12:35:00
8:55 AM,51.8,42.8,71,29.94,10.0,Calm,Calm,-,N/A,,Clear,0,2013-03-17 12:55:00
9:15 AM,53.6,42.8,67,29.95,10.0,Calm,Calm,-,N/A,,Clear,0,2013-03-17 13:15:00
9:35 AM,57.2,42.8,59,29.95,10.0,West,3.5,-,N/A,,Clear,260,2013-03-17 13:35:00
9:55 AM,60.8,41.0,48,29.95,10.0,WSW,4.6,-,N/A,,Clear,250,2013-03-17 13:55:00
10:15 AM,60.8,41.0,48,29.95,10.0,West,6.9,-,N/A,,Clear,260,2013-03-17 14:15:00
10:35 AM,62.6,41.0,45,29.95,10.0,WSW,5.8,-,N/A,,Clear,250,2013-03-17 14:35:00
10:55 AM,62.6,41.0,45,29.95,10.0,WSW,5.8,-,N/A,,Clear,250,2013-03-17 14:55:00
11:15 AM,64.4,41.0,42,29.96,10.0,Calm,Calm,-,N/A,,Clear,0,2013-03-17 15:15:00
11:35 AM,66.2,41.0,40,29.96,10.0,Calm,Calm,-,N/A,,Clear,0,2013-03-17 15:35:00
11:55 AM,68.0,41.0,37,29.95,10.0,Calm,Calm,-,N/A,,Clear,0,2013-03-17 15:55:00
12:15 PM,69.8,41.0,35,29.95,10.0,Calm,Calm,-,N/A,,Scattered Clouds,0,2013-03-17 16:15:00
12:35 PM,69.8,42.8,38,29.95,10.0,SE,5.8,-,N/A,,Mostly Cloudy,130,2013-03-17 16:35:00
12:55 PM,69.8,42.8,38,29.95,10.0,NE,8.1,-,N/A,,Scattered Clouds,50,2013-03-17 16:55:00
1:15 PM,71.6,42.8,35,29.94,10.0,ENE,8.1,-,N/A,,Scattered Clouds,70,2013-03-17 17:15:00
1:35 PM,71.6,42.8,35,29.94,10.0,NNE,9.2,17.3,N/A,,Clear,30,2013-03-17 17:35:00
1:55 PM,69.8,46.4,43,29.93,10.0,NE,12.7,18.4,N/A,,Scattered Clouds,40,2013-03-17 17:55:00
2:15 PM,68.0,50.0,52,29.92,10.0,NE,13.8,18.4,N/A,,Scattered Clouds,50,2013-03-17 18:15:00
2:35 PM,66.2,50.0,56,29.92,10.0,ENE,11.5,19.6,N/A,,Scattered Clouds,60,2013-03-17 18:35:00
2:55 PM,62.6,50.0,63,29.91,10.0,NE,11.5,18.4,N/A,,Scattered Clouds,40,2013-03-17 18:55:00
3:15 PM,64.4,48.2,56,29.91,10.0,East,11.5,17.3,N/A,,Clear,80,2013-03-17 19:15:00
3:35 PM,64.4,46.4,52,29.90,10.0,ENE,12.7,17.3,N/A,,Clear,60,2013-03-17 19:35:00
3:55 PM,62.6,46.4,55,29.90,10.0,ENE,9.2,17.3,N/A,,Clear,60,2013-03-17 19:55:00
4:15 PM,62.6,46.4,55,29.91,10.0,NE,11.5,18.4,N/A,,Clear,50,2013-03-17 20:15:00
4:35 PM,60.8,46.4,59,29.92,10.0,NE,12.7,19.6,N/A,,Clear,40,2013-03-17 20:35:00
4:55 PM,60.8,46.4,59,29.92,10.0,ENE,11.5,16.1,N/A,,Clear,70,2013-03-17 20:55:00
5:15 PM,59.0,46.4,63,29.94,10.0,NE,9.2,18.4,N/A,,Scattered Clouds,50,2013-03-17 21:15:00
5:35 PM,60.8,46.4,59,29.95,10.0,NE,12.7,18.4,N/A,,Scattered Clouds,40,2013-03-17 21:35:00
5:55 PM,59.0,44.6,59,29.95,10.0,NE,8.1,-,N/A,,Scattered Clouds,40,2013-03-17 21:55:00
6:15 PM,57.2,42.8,59,29.96,10.0,NE,11.5,-,N/A,,Scattered Clouds,40,2013-03-17 22:15:00
6:35 PM,55.4,42.8,63,29.96,10.0,NE,8.1,-,N/A,,Scattered Clouds,40,2013-03-17 22:35:00
6:55 PM,53.6,41.0,62,29.97,10.0,NNE,9.2,-,N/A,,Clear,30,2013-03-17 22:55:00
7:15 PM,51.8,41.0,67,29.98,10.0,NNE,11.5,-,N/A,,Scattered Clouds,30,2013-03-17 23:15:00
7:35 PM,51.8,39.2,62,29.99,10.0,NE,8.1,-,N/A,,Scattered Clouds,40,2013-03-17 23:35:00
7:55 PM,50.0,39.2,66,30.00,10.0,NNE,9.2,-,N/A,,Mostly Cloudy,30,2013-03-17 23:55:00
8:15 PM,50.0,37.4,62,30.02,10.0,NE,10.4,18.4,N/A,,Mostly Cloudy,40,2013-03-18 00:15:00
8:35 PM,48.2,37.4,66,30.05,10.0,NE,10.4,17.3,N/A,,Mostly Cloudy,40,2013-03-18 00:35:00
8:55 PM,46.4,37.4,71,30.06,10.0,NNE,12.7,18.4,N/A,,Mostly Cloudy,30,2013-03-18 00:55:00
9:15 PM,46.4,37.4,71,30.06,10.0,NNE,13.8,-,N/A,,Overcast,30,2013-03-18 01:15:00
9:35 PM,46.4,35.6,66,30.08,10.0,NNE,9.2,16.1,N/A,,Overcast,30,2013-03-18 01:35:00
9:55 PM,44.6,37.4,76,30.08,10.0,NE,9.2,-,N/A,,Overcast,50,2013-03-18 01:55:00
10:15 PM,44.6,37.4,76,30.10,10.0,NE,9.2,-,N/A,,Overcast,40,2013-03-18 02:15:00
10:35 PM,44.6,37.4,76,30.10,10.0,NNE,6.9,16.1,N/A,,Overcast,30,2013-03-18 02:35:00
10:55 PM,44.6,37.4,76,30.11,7.0,NE,11.5,17.3,N/A,,Overcast,40,2013-03-18 02:55:00
11:15 PM,42.8,37.4,81,30.10,7.0,NNE,9.2,16.1,N/A,,Overcast,30,2013-03-18 03:15:00
11:35 PM,42.8,37.4,81,30.11,7.0,NNE,9.2,-,N/A,,Overcast,20,2013-03-18 03:35:00
11:55 PM,42.8,37.4,81,30.11,7.0,NE,6.9,17.3,N/A,,Overcast,40,2013-03-18 03:55:00